COSMOS 2475 (743)

Last updated on Nov. 12, 2019, 4:19 a.m. UTC

1 37869U 11064C   19315.37098642  .00000107  00000-0  00000+0 0  9990
2 37869  64.5228 154.6258 0018772 261.5060 272.2832  2.13102071 62425
UTC
Height (km)
Latitude
Longitude
Inclination
Orbital Period
UTC large
Height (km)
Speed (km/s)
/
Latitude / Longitude
Inclination (degrees)
Orbital Period (minutes)
Azimuth
Elevation
Range (km)
Doppler Factor
iOS Compass Heading
iOS Angle

Next 30 passes for location: Hong Kong

Rise time Rise Azimuth (degrees) Set time Set Azimuth (degrees) Duration Max altitude (degrees)

No matching passes for this satellites